Location: Newark
(47.5333°N, 8.7000°E)
Time: 16:57:23
(UTC+00:00)

BEESAT 3 - Pass Details

Date: 28 November 2020
Orbit: 491 x 509 km, 64.9° (Epoch: 14 January)

Event Time Altitude Azimuth Distance (km) Brightness Sun altitude
Exits shadow 05:04:32 27° 330° (NNW) 1,008 ? -17.0°
Drops below altitude 10° 05:07:32 10° 19° (NNE) 1,738 ? -16.5°
Sets 05:09:57 0° 32° (NNE) 2,626 ? -16.1°
